This demonstration page uses our WeatherBlox Daily Observations layout. Learn more.

Left ArrowRight Arrow

Hourly Observations for January 8, 2022

Temp ( °F °C ) Dew Point ( °F °C ) Humidity (%) Winds ( mph kmh ) Pressure ( in mb ) Visibility ( mi km ) Precip ( " mm )
12:53 am 00:53 Cloudy -3 -19.4 -10 -23.3 71 71 NW 15 24 29.75 1008 7 11 0.00 0.00
1:34 am 01:34 Cloudy -3 -19.4 -10 -23.3 71 71 NW 10 17 29.93 1014 10 16 0.00 0.00
1:53 am 01:53 Cloudy -3 -19.4 -10 -23.3 71 71 WNW 9 15 29.80 1009 10 16 0.00 0.00
2:53 am 02:53 Cloudy -3 -19.4 -11 -23.9 68 68 WNW 13 20 29.85 1011 10 16 0.00 0.00
3:53 am 03:53 Cloudy -3 -19.4 -11 -23.9 68 68 WNW 13 20 29.90 1013 10 16 0.00 0.00
4:53 am 04:53 Cloudy -4 -20 -12 -24.4 68 68 NW 17 28 29.94 1014 10 16 0.00 0.00
5:51 am 05:51 Cloudy with Light Snow -4 -20 -11 -24 71 71 WNW 16 26 30.18 1022 6 10 0.00 0.00
5:53 am 05:53 Cloudy with Light Snow -4 -20 -12 -24.4 68 68 WNW 18 30 30.01 1016 6 10 0.00 0.00
6:53 am 06:53 Cloudy -4 -20 -12 -24.4 68 68 WNW 22 35 30.06 1018 10 16 0.00 0.00
7:08 am 07:08 Cloudy with Light Snow -5 -20.6 -11 -23.9 75 75 WNW 16 26 30.24 1024 2 3 0.00 0.00
7:11 am 07:11 Cloudy with Light Snow -5 -20.6 -11 -23.9 75 75 WNW 14 22 30.25 1024 1 2 0.00 0.00
7:24 am 07:24 Cloudy with Light Snow -5 -20.6 -11 -23.9 75 75 NW 12 19 30.27 1025 1 1 0.01 0.25
7:31 am 07:31 Mostly Cloudy with Light Snow -5 -20.6 -11 -23.9 75 75 NW 9 15 30.27 1025 1 2 0.01 0.25
7:38 am 07:38 Mostly Cloudy with Light Snow -5 -20.6 -10 -23.3 79 79 W 10 17 30.28 1025 1 1 0.01 0.25
7:53 am 07:53 Mostly Cloudy with Light Snow -5 -20.6 -11 -23.9 75 75 WNW 14 22 30.15 1021 1 1 0.02 0.51
7:58 am 07:58 Cloudy with Light Snow -5 -20.6 -11 -23.9 75 75 W 10 17 30.31 1026 2 2 0.01 0.25
8:07 am 08:07 Cloudy with Light Snow -5 -20.6 -12 -24.4 72 72 WNW 14 22 30.31 1026 2 3 0.01 0.25
8:22 am 08:22 Mostly Cloudy with Light Snow -6 -21 -11 -24 77 77 WNW 16 26 30.33 1027 1 2 0.00 0.00
8:32 am 08:32 Mostly Cloudy with Snow -6 -21.1 -11 -23.9 78 78 WNW 12 19 30.35 1028 1 1 0.01 0.25
8:40 am 08:40 Mostly Cloudy with Snow -6 -21.1 -11 -23.9 78 78 WNW 16 26 30.35 1028 1 1 0.02 0.51
8:53 am 08:53 Mostly Cloudy with Snow -5 -20.6 -11 -23.9 75 75 WNW 13 20 30.22 1023 1 1 0.02 0.51
9:04 am 09:04 Mostly Cloudy with Light Snow -6 -21 -11 -24 77 77 WNW 9 15 30.38 1029 1 2 0.00 0.00
9:08 am 09:08 Cloudy with Light Snow -5 -20.6 -12 -24.4 72 72 WNW 15 24 30.37 1028 2 3 0.01 0.25
9:16 am 09:16 Cloudy -5 -20.6 -14 -25.6 64 64 WNW 18 30 30.38 1029 9 14 0.01 0.25
9:30 am 09:30 Partly Cloudy -6 -21.1 -14 -25.6 67 67 W 14 22 30.40 1029 10 16 0.01 0.25
9:53 am 09:53 Mostly Sunny -6 -21.1 -14 -25.6 67 67 W 12 19 30.28 1025 10 16 0.01 0.25
10:03 am 10:03 Mostly Cloudy -6 -21.1 -14 -25.6 67 67 W 10 17 30.42 1030 10 16 0.00 0.00
10:28 am 10:28 Mostly Cloudy -6 -21 -13 -25 70 70 W 10 17 30.45 1031 10 16 0.00 0.00
10:53 am 10:53 Cloudy -5 -20.6 -13 -25 68 68 W 6 9 30.33 1027 10 16 0.00 0.00
11:53 am 11:53 Cloudy -3 -19.4 -12 -24.4 65 65 NW 18 30 30.34 1027 10 16 0.00 0.00
12:53 pm 12:53 Cloudy -2 -18.9 -11 -23.9 65 65 WNW 16 26 30.35 1028 10 16 0.00 0.00
1:53 pm 13:53 Partly Cloudy -1 -18.3 -11 -23.9 62 62 WNW 12 19 30.37 1029 10 16 0.00 0.00
2:53 pm 14:53 Sunny -2 -18.9 -10 -23.3 68 68 WSW 12 19 30.40 1029 10 16 0.00 0.00
3:53 pm 15:53 Cloudy -2 -18.9 -10 -23.3 68 68 W 7 11 30.41 1030 10 16 0.00 0.00
4:53 pm 16:53 Clear -7 -21.7 -13 -25 75 75 W 8 13 30.45 1031 10 16 0.00 0.00
5:53 pm 17:53 Clear -5 -20.6 -13 -25 68 68 SW 14 22 30.45 1031 10 16 0.00 0.00
6:53 pm 18:53 Clear -6 -21.1 -13 -25 71 71 WSW 12 19 30.46 1032 10 16 0.00 0.00
7:53 pm 19:53 Clear -9 -22.8 -15 -26.1 75 75 WSW 9 15 30.45 1031 10 16 0.00 0.00
8:53 pm 20:53 Clear -5 -20.6 -12 -24.4 72 72 VRB 7 11 30.43 1031 10 16 0.00 0.00
9:53 pm 21:53 Clear -6 -21.1 -13 -25 71 71 W 7 11 30.44 1031 10 16 0.00 0.00
10:53 pm 22:53 Clear -8 -22.2 -13 -25 78 78 SSE 6 9 30.43 1031 10 16 0.00 0.00
11:53 pm 23:53 Clear -10 -23.3 -15 -26.1 78 78 E 8 13 30.42 1030 10 16 0.00 0.00

Powered by AerisWeather